User: anonymous   Login
Location: Milton
(43.5183°N, 79.8775°W)
Time: 17:43:16
(UTC+00:00)
Language:

COSMOS 2251 DEB - Orbit

View from above orbital plane
View from above orbital plane
View from above satellite
View from above satellite

Ground track
Ground track

The orbit data is extracted from the following two-line orbital elements,

1 34114U 93036KK  24146.77557567  .00007153  00000-0  21881-2 0  9998
2 34114  74.0664  23.8747 0066655 168.0409 261.9613 14.40665701796058
Epoch (UTC): 25 May 2024 18:36:49
Eccentricity: 0.0066655
inclination: 74.0664°
perigee height: 709 km
apogee height: 804 km
right ascension of ascending node: 23.8747°
argument of perigee: 168.0409°
revolutions per day: 14.40665701
mean anomaly at epoch: 261.9613°
orbit number at epoch: 79605

The dashed part of the orbit path shows where the satellite is in the earth's shadow,  

DLR